Flag for U.S.A. Weather past 2 weeks in Kodiak, Alaska, U.S.A.

Now
54 °F

Scattered clouds.


Feels Like: 48 °F
Forecast: 49 / 56 °F
Wind: 28 mph from Northwest

Location: Kodiak Weather Reporting Station

Current Time: Aug 31, 2015 at 2:17:16 PM

Latest Report: Aug 31, 2015 at 12:53 PM


Visibility: 10 mi

Pressure: 29.70 "Hg

Humidity: 37%

Dew point: 28 °F

Location of KodiakLocation

Historic Weather in Kodiak — Graph

°F

Kodiak temperature yesterday

Maximum temperature yesterday: 59 °F (at 4:53 PM)
Minimum temperature yesterday: 50 °F (at 5:53 AM)
Average temperature yesterday: 54 °F

Past Weeks' High & Low Weather Summary

 TemperatureHumidityPressure
High71 °F (Aug 24, 2:53 PM)93% (Aug 17, 1:53 AM)30.25 "Hg (Aug 17, 1:53 AM)
Low45 °F (Aug 20, 6:53 AM)25% (Aug 28, 5:53 PM)29.36 "Hg (Aug 29, 9:53 PM)
Average59 °F62%29.86 "Hg
* Reported Aug 16 12:53 PM — Aug 31 12:53 PM, Kodiak, Weather by CustomWeather, © 2015

Note: Actual official high and low records may vary slightly from our data, if they occured in-between our weather recording intervals... More about our weather records

Advertising

Kodiak weather history for previous 24 hours

 ConditionsComfort  
Time TempWeatherWind HumidityBarometerVisibility
12:53 PM
Mon, Aug 31
54 °FScattered clouds.28 mph37%29.70 "Hg10 mi
10:53 AM52 °FScattered clouds.26 mph43%29.68 "Hg10 mi
9:53 AM52 °FScattered clouds.21 mph50%29.66 "Hg10 mi
8:53 AM52 °FScattered clouds.29 mph45%29.65 "Hg10 mi
7:53 AM52 °FPassing clouds.29 mph43%29.64 "Hg10 mi
6:53 AM51 °FPassing clouds.15 mph50%29.64 "Hg10 mi
5:53 AM53 °FPassing clouds.29 mph48%29.62 "Hg10 mi
4:53 AM51 °FPassing clouds.15 mph56%29.62 "Hg10 mi
3:53 AM53 °FPassing clouds.18 mph52%29.59 "Hg10 mi
2:53 AM54 °FPassing clouds.21 mph55%29.58 "Hg10 mi
1:53 AM53 °FPassing clouds.26 mph55%29.56 "Hg10 mi
12:53 AM54 °FPassing clouds.17 mph51%29.55 "Hg10 mi
11:53 PM
Sun, Aug 30
54 °FPassing clouds.8 mph49%29.54 "Hg10 mi
10:53 PM53 °FPassing clouds.18 mph51%29.53 "Hg10 mi
9:53 PM54 °FPassing clouds.18 mph49%29.52 "Hg10 mi
8:53 PM55 °FPassing clouds.12 mph47%29.51 "Hg10 mi
7:53 PM56 °FPassing clouds.17 mph46%29.51 "Hg10 mi
6:53 PM57 °FPassing clouds.24 mph39%29.50 "Hg10 mi
5:53 PM58 °FPassing clouds.25 mph38%29.49 "Hg10 mi
4:53 PM59 °FPassing clouds.22 mph36%29.49 "Hg10 mi
3:53 PM58 °FPassing clouds.25 mph38%29.49 "Hg10 mi
2:53 PM58 °FPassing clouds.24 mph35%29.49 "Hg10 mi
Weather by CustomWeather, © 2015

See weather overviewHow to use our weather pages